QPF
0.00 0.00 0.00 0.00 0.00 0.00 0.00 0.00 0.00 0.00 0.00 0.00 0.00 0.00 0.00 0.00 0.00 0.00 0.00 0.00 0.00 0.00 0.00 0.00 0.00 0.00 0.00 0.00 0.00 0.00 0.01 0.01 0.01 0.01 0.02 0.03 0.04 0.05 0.05 0.06 0.08 0.08 0.08
0.00 0.00 0.00 0.00 0.00 0.00 0.00 0.00 0.00 0.00 0.00 0.00 0.00 0.00 0.00 0.00 0.00 0.00 0.00 0.00 0.00 0.00 0.00 0.00 0.00 0.00 0.00 0.00 0.00 0.01 0.01 0.01 0.01 0.01 0.02 0.02 0.03 0.04 0.04 0.05 0.06 0.07 0.08
0.00 0.00 0.00 0.00 0.00 0.00 0.00 0.00 0.00 0.00 0.00 0.00 0.00 0.00 0.00 0.00 0.00 0.00 0.00 0.00 0.00 0.00 0.00 0.00 0.00 0.00 0.00 0.00 0.00 0.00 0.00 0.01 0.01 0.02 0.02 0.02 0.01 0.03 0.03 0.04 0.05 0.06 0.08
0.00 0.00 0.00 0.00 0.00 0.00 0.00 0.00 0.00 0.00 0.00 0.00 0.00 0.00 0.00 0.00 0.00 0.00 0.00 0.00 0.00 0.00 0.00 0.00 0.00 0.00 0.00 0.00 0.00 0.01 0.00 0.00 0.01 0.02 0.01 0.02 0.01 0.02 0.03 0.03 0.05 0.06 0.07
0.00 0.00 0.00 0.00 0.00 0.00 0.00 0.00 0.00 0.00 0.00 0.00 0.00 0.00 0.00 0.00 0.00 0.00 0.00 0.00 0.00 0.00 0.00 0.00 0.00 0.00 0.00 0.00 0.01 0.01 0.01 0.00 0.01 0.01 0.01 0.01 0.01 0.02 0.02 0.02 0.04 0.06 0.07
0.00 0.00 0.00 0.00 0.00 0.00 0.00 0.00 0.00 0.00 0.00 0.00 0.00 0.00 0.00 0.00 0.00 0.00 0.00 0.00 0.00 0.00 0.00 0.00 0.00 0.00 0.00 0.00 0.00 0.01 0.01 0.00 0.01 0.02 0.01 0.01 0.02 0.02 0.02 0.01 0.03 0.08 0.09
0.00 0.00 0.00 0.00 0.00 0.00 0.00 0.00 0.00 0.00 0.00 0.00 0.00 0.00 0.00 0.00 0.00 0.00 0.00 0.00 0.00 0.00 0.00 0.00 0.00 0.00 0.00 0.00 0.00 0.01 0.01 0.01 0.01 0.02 0.01 0.01 0.02 0.02 0.01 0.01 0.02 0.05 0.08
0.00 0.00 0.00 0.00 0.00 0.00 0.00 0.00 0.00 0.00 0.00 0.00 0.00 0.00 0.00 0.00 0.00 0.00 0.00 0.00 0.00 0.00 0.00 0.01 0.00 0.00 0.00 0.00 0.00 0.01 0.01 0.02 0.01 0.01 0.01 0.02 0.03 0.02 0.02 0.01 0.01 0.03 0.05
0.00 0.00 0.00 0.00 0.00 0.00 0.00 0.00 0.00 0.00 0.00 0.00 0.00 0.00 0.00 0.00 0.00 0.00 0.00 0.00 0.00 0.00 0.00 0.01 0.00 0.00 0.00 0.00 0.01 0.02 0.01 0.02 0.02 0.01 0.02 0.03 0.03 0.02 0.02 0.01 0.01 0.02 0.03
0.00 0.00 0.00 0.00 0.00 0.00 0.00 0.00 0.00 0.00 0.00 0.00 0.00 0.00 0.00 0.00 0.00 0.00 0.00 0.00 0.00 0.00 0.00 0.00 0.01 0.01 0.01 0.01 0.01 0.01 0.01 0.02 0.03 0.03 0.04 0.04 0.02 0.02 0.02 0.02 0.02 0.01 0.02
0.00 0.00 0.00 0.00 0.00 0.00 0.00 0.00 0.00 0.00 0.00 0.00 0.00 0.00 0.00 0.00 0.00 0.00 0.00 0.00 0.00 0.00 0.00 0.00 0.00 0.01 0.02 0.01 0.01 0.00 0.01 0.02 0.03 0.03 0.04 0.05 0.04 0.03 0.02 0.02 0.02 0.01 0.01
0.00 0.00 0.00 0.00 0.00 0.00 0.00 0.00 0.00 0.00 0.00 0.00 0.00 0.00 0.00 0.00 0.00 0.00 0.00 0.00 0.00 0.00 0.00 0.00 0.00 0.00 0.01 0.01 0.01 0.02 0.02 0.02 0.03 0.03 0.04 0.05 0.05 0.04 0.03 0.02 0.02 0.02 0.02
0.00 0.00 0.00 0.00 0.00 0.00 0.00 0.00 0.00 0.00 0.00 0.00 0.00 0.00 0.00 0.00 0.00 0.00 0.00 0.00 0.00 0.00 0.00 0.00 0.00 0.00 0.00 0.00 0.00 0.01 0.01 0.02 0.03 0.03 0.03 0.03 0.03 0.03 0.03 0.03 0.03 0.03 0.02
0.00 0.00 0.00 0.00 0.00 0.00 0.00 0.00 0.00 0.00 0.00 0.00 0.00 0.00 0.00 0.00 0.00 0.00 0.00 0.00 0.00 0.00 0.00 0.00 0.00 0.00 0.00 0.00 0.00 0.00 0.00 0.01 0.01 0.01 0.02 0.01 0.01 0.01 0.02 0.02 0.01 0.01 0.01
0.00 0.00 0.00 0.00 0.00 0.00 0.00 0.00 0.00 0.00 0.00 0.00 0.00 0.00 0.00 0.00 0.00 0.00 0.00 0.00 0.00 0.00 0.00 0.00 0.00 0.00 0.00 0.00 0.00 0.00 0.00 0.00 0.01 0.01 0.01 0.01 0.01 0.01 0.00 0.00 0.01 0.01 0.01
0.00 0.00 0.00 0.00 0.00 0.00 0.00 0.00 0.00 0.00 0.00 0.00 0.00 0.00 0.00 0.00 0.00 0.00 0.00 0.00 0.00 0.00 0.00 0.00 0.00 0.00 0.00 0.00 0.00 0.00 0.00 0.00 0.00 0.01 0.01 0.01 0.01 0.01 0.01 0.00 0.01 0.01 0.00
0.00 0.00 0.00 0.00 0.00 0.00 0.00 0.00 0.00 0.00 0.00 0.00 0.00 0.00 0.00 0.00 0.00 0.00 0.00 0.00 0.00 0.00 0.00 0.00 0.00 0.00 0.00 0.00 0.00 0.01 0.01 0.01 0.01 0.01 0.01 0.01 0.01 0.01 0.01 0.01 0.01 0.01 0.00
0.00 0.00 0.00 0.00 0.00 0.00 0.00 0.00 0.00 0.00 0.00 0.00 0.00 0.00 0.00 0.00 0.00 0.00 0.00 0.00 0.00 0.00 0.00 0.00 0.00 0.00 0.00 0.00 0.00 0.01 0.01 0.01 0.00 0.01 0.01 0.01 0.01 0.01 0.01 0.01 0.01 0.01 0.00
0.00 0.00 0.00 0.00 0.00 0.00 0.00 0.00 0.00 0.00 0.00 0.00 0.00 0.00 0.00 0.00 0.00 0.00 0.00 0.00 0.00 0.00 0.00 0.00 0.00 0.00 0.00 0.00 0.00 0.01 0.00 0.00 0.00 0.01 0.01 0.01 0.00 0.01 0.02 0.01 0.01 0.00 0.00
0.00 0.00 0.00 0.00 0.00 0.00 0.00 0.00 0.00 0.00 0.00 0.00 0.00 0.00 0.00 0.00 0.00 0.00 0.00 0.00 0.00 0.00 0.00 0.00 0.00 0.00 0.00 0.00 0.00 0.01 0.01 0.01 0.01 0.01 0.01 0.01 0.01 0.01 0.02 0.02 0.01 0.01 0.01
0.00 0.00 0.00 0.00 0.00 0.00 0.00 0.00 0.00 0.00 0.00 0.00 0.00 0.00 0.00 0.00 0.00 0.00 0.00 0.00 0.00 0.00 0.00 0.00 0.00 0.00 0.00 0.00 0.00 0.00 0.01 0.01 0.01 0.00 0.00 0.01 0.02 0.02 0.02 0.03 0.03 0.02 0.02
0.00 0.00 0.00 0.00 0.00 0.00 0.00 0.00 0.00 0.00 0.00 0.00 0.00 0.00 0.00 0.00 0.00 0.00 0.00 0.00 0.00 0.00 0.00 0.00 0.00 0.00 0.00 0.00 0.00 0.00 0.00 0.00 0.01 0.01 0.01 0.01 0.02 0.02 0.03 0.03 0.04 0.04 0.03
0.00 0.00 0.00 0.00 0.00 0.00 0.00 0.00 0.00 0.00 0.00 0.00 0.00 0.00 0.00 0.00 0.00 0.00 0.00 0.00 0.00 0.00 0.00 0.00 0.00 0.00 0.00 0.00 0.00 0.00 0.00 0.00 0.00 0.00 0.00 0.01 0.01 0.01 0.02 0.03 0.03 0.04 0.04
0.00 0.00 0.00 0.00 0.00 0.00 0.00 0.00 0.00 0.00 0.00 0.00 0.00 0.00 0.00 0.00 0.00 0.00 0.00 0.00 0.00 0.00 0.00 0.00 0.00 0.00 0.00 0.00 0.00 0.00 0.00 0.00 0.00 0.00 0.00 0.00 0.01 0.01 0.02 0.03 0.03 0.02 0.02
0.00 0.00 0.00 0.00 0.00 0.00 0.00 0.00 0.00 0.00 0.00 0.00 0.00 0.00 0.00 0.00 0.00 0.00 0.00 0.00 0.00 0.00 0.00 0.00 0.00 0.00 0.00 0.00 0.00 0.00 0.00 0.00 0.00 0.00 0.00 0.00 0.01 0.01 0.02 0.03 0.04 0.02 0.01
0.01 0.01 0.00 0.00 0.00 0.00 0.00 0.00 0.00 0.00 0.00 0.00 0.00 0.00 0.00 0.00 0.00 0.00 0.00 0.00 0.00 0.00 0.00 0.00 0.00 0.00 0.00 0.00 0.00 0.00 0.00 0.00 0.00 0.00 0.00 0.00 0.01 0.02 0.01 0.02 0.03 0.02 0.02
MSLP
1012.11 1012.20 1012.32 1012.47 1012.63 1012.81 1013.01 1013.22 1013.46 1013.71 1013.97 1014.21 1014.42 1014.59 1014.71 1014.76 1014.75 1014.68 1014.56 1014.40 1014.21 1014.00 1013.78 1013.57 1013.37 1013.18 1013.03 1012.89 1012.79 1012.71 1012.64 1012.58 1012.52 1012.44 1012.35 1012.24 1012.11 1011.98 1011.84 1011.72 1011.62 1011.55 1011.51
1012.01 1012.15 1012.31 1012.48 1012.65 1012.81 1012.98 1013.18 1013.40 1013.66 1013.94 1014.22 1014.48 1014.70 1014.85 1014.92 1014.91 1014.82 1014.68 1014.49 1014.27 1014.05 1013.84 1013.63 1013.44 1013.27 1013.11 1012.98 1012.85 1012.75 1012.66 1012.58 1012.51 1012.45 1012.38 1012.30 1012.22 1012.12 1012.02 1011.91 1011.82 1011.74 1011.68
1011.78 1011.99 1012.22 1012.43 1012.61 1012.78 1012.94 1013.12 1013.35 1013.62 1013.92 1014.24 1014.55 1014.81 1014.99 1015.08 1015.07 1014.97 1014.81 1014.60 1014.37 1014.15 1013.94 1013.74 1013.57 1013.40 1013.24 1013.09 1012.95 1012.82 1012.70 1012.60 1012.53 1012.48 1012.44 1012.41 1012.37 1012.33 1012.28 1012.21 1012.13 1012.04 1011.97
1011.49 1011.76 1012.06 1012.32 1012.54 1012.72 1012.89 1013.08 1013.30 1013.58 1013.91 1014.26 1014.60 1014.90 1015.10 1015.21 1015.20 1015.10 1014.93 1014.71 1014.48 1014.27 1014.07 1013.89 1013.73 1013.58 1013.42 1013.26 1013.10 1012.94 1012.79 1012.67 1012.59 1012.55 1012.54 1012.55 1012.58 1012.59 1012.59 1012.56 1012.50 1012.42 1012.33
1011.17 1011.51 1011.86 1012.18 1012.45 1012.66 1012.84 1013.03 1013.26 1013.55 1013.89 1014.26 1014.62 1014.93 1015.15 1015.27 1015.27 1015.18 1015.01 1014.80 1014.59 1014.39 1014.21 1014.06 1013.93 1013.79 1013.64 1013.48 1013.30 1013.12 1012.95 1012.81 1012.72 1012.68 1012.69 1012.73 1012.79 1012.85 1012.89 1012.90 1012.86 1012.79 1012.69
1010.89 1011.27 1011.67 1012.04 1012.34 1012.58 1012.78 1012.98 1013.21 1013.49 1013.83 1014.19 1014.56 1014.88 1015.11 1015.24 1015.26 1015.18 1015.03 1014.84 1014.66 1014.49 1014.35 1014.24 1014.13 1014.03 1013.90 1013.74 1013.55 1013.36 1013.17 1013.02 1012.91 1012.86 1012.87 1012.92 1013.00 1013.08 1013.15 1013.18 1013.17 1013.11 1013.02
1010.67 1011.06 1011.49 1011.89 1012.22 1012.48 1012.69 1012.88 1013.10 1013.37 1013.70 1014.05 1014.41 1014.73 1014.97 1015.11 1015.15 1015.09 1014.97 1014.82 1014.67 1014.55 1014.45 1014.39 1014.32 1014.25 1014.15 1014.01 1013.83 1013.64 1013.44 1013.27 1013.14 1013.07 1013.06 1013.10 1013.17 1013.25 1013.32 1013.36 1013.37 1013.33 1013.26
1010.51 1010.89 1011.32 1011.72 1012.06 1012.32 1012.53 1012.71 1012.92 1013.18 1013.48 1013.82 1014.16 1014.48 1014.72 1014.88 1014.94 1014.92 1014.84 1014.73 1014.63 1014.56 1014.51 1014.49 1014.47 1014.43 1014.37 1014.26 1014.10 1013.92 1013.73 1013.54 1013.40 1013.30 1013.26 1013.26 1013.30 1013.36 1013.42 1013.46 1013.47 1013.46 1013.42
1010.38 1010.72 1011.12 1011.50 1011.82 1012.07 1012.27 1012.45 1012.65 1012.88 1013.17 1013.49 1013.83 1014.14 1014.39 1014.57 1014.66 1014.67 1014.64 1014.59 1014.53 1014.50 1014.50 1014.52 1014.54 1014.55 1014.52 1014.45 1014.33 1014.17 1013.99 1013.82 1013.66 1013.54 1013.46 1013.42 1013.41 1013.43 1013.46 1013.49 1013.52 1013.53 1013.53
1010.25 1010.52 1010.87 1011.21 1011.50 1011.73 1011.92 1012.09 1012.28 1012.51 1012.78 1013.09 1013.42 1013.74 1014.00 1014.20 1014.33 1014.39 1014.40 1014.39 1014.38 1014.39 1014.42 1014.48 1014.53 1014.57 1014.58 1014.55 1014.48 1014.36 1014.21 1014.06 1013.90 1013.77 1013.66 1013.58 1013.53 1013.50 1013.50 1013.52 1013.55 1013.59 1013.64
1010.07 1010.28 1010.55 1010.84 1011.09 1011.30 1011.48 1011.65 1011.83 1012.06 1012.34 1012.65 1012.99 1013.31 1013.59 1013.82 1013.98 1014.08 1014.14 1014.17 1014.19 1014.23 1014.29 1014.36 1014.43 1014.50 1014.54 1014.56 1014.53 1014.46 1014.36 1014.24 1014.11 1013.98 1013.86 1013.76 1013.67 1013.62 1013.59 1013.59 1013.62 1013.69 1013.78
1009.86 1009.99 1010.19 1010.42 1010.63 1010.82 1010.98 1011.16 1011.36 1011.59 1011.88 1012.20 1012.55 1012.88 1013.19 1013.44 1013.63 1013.77 1013.86 1013.92 1013.98 1014.03 1014.10 1014.18 1014.26 1014.35 1014.42 1014.47 1014.48 1014.47 1014.43 1014.36 1014.28 1014.18 1014.07 1013.96 1013.86 1013.77 1013.72 1013.71 1013.75 1013.84 1013.97
1009.64 1009.70 1009.83 1010.00 1010.17 1010.33 1010.50 1010.68 1010.89 1011.14 1011.44 1011.77 1012.12 1012.47 1012.79 1013.06 1013.28 1013.44 1013.57 1013.66 1013.73 1013.79 1013.86 1013.95 1014.04 1014.13 1014.22 1014.29 1014.36 1014.40 1014.42 1014.41 1014.38 1014.32 1014.24 1014.15 1014.05 1013.97 1013.91 1013.89 1013.93 1014.03 1014.18
1009.48 1009.47 1009.54 1009.65 1009.78 1009.92 1010.08 1010.26 1010.48 1010.74 1011.04 1011.37 1011.71 1012.06 1012.38 1012.66 1012.90 1013.09 1013.23 1013.35 1013.44 1013.52 1013.60 1013.68 1013.77 1013.86 1013.96 1014.07 1014.16 1014.25 1014.32 1014.37 1014.40 1014.39 1014.35 1014.29 1014.22 1014.15 1014.09 1014.08 1014.12 1014.22 1014.38
1009.43 1009.37 1009.38 1009.43 1009.52 1009.63 1009.77 1009.94 1010.15 1010.39 1010.68 1010.99 1011.31 1011.63 1011.94 1012.22 1012.46 1012.67 1012.84 1012.98 1013.10 1013.20 1013.29 1013.38 1013.47 1013.57 1013.68 1013.79 1013.91 1014.03 1014.15 1014.24 1014.32 1014.36 1014.37 1014.35 1014.31 1014.26 1014.22 1014.22 1014.26 1014.36 1014.51
1009.53 1009.43 1009.38 1009.39 1009.42 1009.50 1009.60 1009.74 1009.91 1010.12 1010.36 1010.62 1010.90 1011.18 1011.45 1011.71 1011.95 1012.16 1012.36 1012.53 1012.68 1012.81 1012.93 1013.04 1013.15 1013.25 1013.36 1013.48 1013.61 1013.74 1013.88 1014.01 1014.12 1014.21 1014.26 1014.28 1014.28 1014.26 1014.25 1014.26 1014.31 1014.40 1014.54
1009.81 1009.66 1009.57 1009.51 1009.49 1009.51 1009.56 1009.64 1009.76 1009.90 1010.07 1010.26 1010.46 1010.67 1010.89 1011.12 1011.34 1011.56 1011.77 1011.98 1012.17 1012.34 1012.50 1012.64 1012.77 1012.89 1013.00 1013.12 1013.25 1013.39 1013.53 1013.67 1013.80 1013.92 1014.01 1014.07 1014.11 1014.13 1014.15 1014.18 1014.24 1014.33 1014.45
1010.23 1010.04 1009.89 1009.78 1009.70 1009.65 1009.63 1009.64 1009.67 1009.73 1009.81 1009.90 1010.01 1010.14 1010.29 1010.46 1010.65 1010.86 1011.09 1011.32 1011.56 1011.78 1011.98 1012.16 1012.32 1012.46 1012.58 1012.70 1012.82 1012.94 1013.08 1013.22 1013.36 1013.49 1013.61 1013.71 1013.79 1013.85 1013.91 1013.98 1014.05 1014.15 1014.27
1010.71 1010.48 1010.29 1010.11 1009.97 1009.86 1009.77 1009.70 1009.65 1009.61 1009.58 1009.57 1009.58 1009.61 1009.67 1009.78 1009.93 1010.12 1010.34 1010.59 1010.86 1011.11 1011.36 1011.58 1011.76 1011.92 1012.05 1012.17 1012.28 1012.40 1012.52 1012.66 1012.81 1012.95 1013.10 1013.23 1013.36 1013.47 1013.57 1013.68 1013.78 1013.90 1014.03
1011.17 1010.91 1010.66 1010.45 1010.25 1010.08 1009.93 1009.79 1009.66 1009.53 1009.41 1009.30 1009.20 1009.14 1009.11 1009.14 1009.22 1009.37 1009.57 1009.81 1010.08 1010.36 1010.62 1010.86 1011.07 1011.24 1011.39 1011.51 1011.62 1011.74 1011.86 1012.00 1012.16 1012.33 1012.50 1012.68 1012.85 1013.01 1013.17 1013.32 1013.46 1013.61 1013.75
1011.53 1011.24 1010.96 1010.71 1010.48 1010.27 1010.07 1009.89 1009.70 1009.51 1009.31 1009.12 1008.93 1008.78 1008.66 1008.60 1008.60 1008.68 1008.82 1009.02 1009.26 1009.52 1009.78 1010.02 1010.24 1010.42 1010.57 1010.70 1010.83 1010.95 1011.09 1011.25 1011.43 1011.63 1011.85 1012.07 1012.29 1012.51 1012.72 1012.92 1013.10 1013.28 1013.45
1011.73 1011.42 1011.13 1010.86 1010.62 1010.40 1010.19 1009.99 1009.78 1009.55 1009.31 1009.06 1008.80 1008.56 1008.35 1008.20 1008.11 1008.09 1008.14 1008.26 1008.43 1008.63 1008.84 1009.06 1009.26 1009.44 1009.59 1009.74 1009.88 1010.04 1010.21 1010.40 1010.63 1010.88 1011.15 1011.42 1011.70 1011.98 1012.24 1012.48 1012.71 1012.91 1013.10
1011.78 1011.45 1011.15 1010.89 1010.66 1010.46 1010.27 1010.09 1009.89 1009.66 1009.41 1009.12 1008.82 1008.51 1008.22 1007.96 1007.75 1007.62 1007.55 1007.55 1007.61 1007.71 1007.85 1008.00 1008.16 1008.32 1008.48 1008.64 1008.81 1009.00 1009.22 1009.47 1009.75 1010.06 1010.39 1010.73 1011.06 1011.39 1011.70 1011.98 1012.24 1012.47 1012.69
1011.69 1011.36 1011.08 1010.84 1010.64 1010.48 1010.33 1010.19 1010.02 1009.82 1009.58 1009.28 1008.95 1008.59 1008.22 1007.86 1007.54 1007.27 1007.05 1006.91 1006.83 1006.80 1006.83 1006.89 1006.99 1007.11 1007.25 1007.42 1007.63 1007.86 1008.14 1008.45 1008.79 1009.16 1009.55 1009.95 1010.34 1010.71 1011.06 1011.37 1011.66 1011.91 1012.15
1011.55 1011.22 1010.95 1010.74 1010.58 1010.47 1010.37 1010.28 1010.16 1010.00 1009.78 1009.50 1009.15 1008.75 1008.31 1007.86 1007.42 1007.01 1006.65 1006.34 1006.10 1005.93 1005.83 1005.78 1005.80 1005.87 1005.99 1006.15 1006.38 1006.65 1006.97 1007.34 1007.74 1008.17 1008.61 1009.05 1009.48 1009.89 1010.27 1010.61 1010.92 1011.19 1011.45
1011.42 1011.10 1010.84 1010.66 1010.53 1010.45 1010.40 1010.35 1010.28 1010.16 1009.96 1009.69 1009.34 1008.91 1008.42 1007.89 1007.35 1006.81 1006.31 1005.85 1005.46 1005.15 1004.90 1004.74 1004.66 1004.66 1004.74 1004.89 1005.11 1005.40 1005.75 1006.15 1006.59 1007.06 1007.54 1008.02 1008.47 1008.91 1009.30 1009.67 1010.00 1010.30 1010.58
Thickness
5742 5743 5743 5742 5739 5736 5733 5731 5727 5724 5721 5717 5713 5709 5706 5704 5702 5700 5697 5694 5692 5689 5686 5683 5681 5679 5676 5674 5673 5672 5672 5672 5674 5674 5676 5680 5685 5688 5693 5697 5702 5706 5710
5738 5740 5740 5739 5737 5734 5731 5729 5726 5723 5720 5717 5713 5709 5705 5702 5700 5698 5695 5693 5690 5687 5685 5681 5678 5676 5673 5671 5670 5669 5668 5668 5669 5669 5668 5669 5674 5680 5687 5691 5696 5700 5704
5737 5738 5737 5736 5734 5732 5730 5729 5725 5722 5719 5716 5711 5707 5704 5700 5698 5695 5693 5691 5689 5686 5683 5680 5677 5674 5672 5669 5668 5666 5665 5664 5665 5666 5666 5663 5664 5670 5678 5684 5689 5693 5698
5740 5738 5737 5735 5734 5733 5731 5728 5724 5721 5718 5715 5711 5706 5701 5697 5695 5692 5691 5690 5688 5685 5682 5679 5676 5673 5670 5668 5667 5665 5664 5663 5662 5663 5664 5665 5666 5666 5668 5676 5682 5687 5692
5741 5740 5739 5738 5736 5734 5731 5727 5723 5720 5717 5713 5710 5706 5701 5697 5694 5692 5690 5689 5687 5684 5682 5679 5676 5673 5670 5668 5666 5664 5663 5662 5661 5661 5661 5662 5662 5664 5665 5667 5673 5679 5685
5742 5741 5740 5737 5734 5732 5729 5726 5722 5718 5716 5713 5709 5705 5701 5697 5694 5691 5689 5687 5685 5684 5681 5678 5676 5673 5670 5668 5666 5665 5663 5662 5661 5661 5661 5661 5661 5661 5663 5664 5667 5671 5678
5741 5738 5736 5734 5732 5730 5728 5725 5721 5717 5715 5712 5708 5705 5702 5698 5694 5691 5688 5686 5684 5682 5680 5678 5675 5673 5670 5668 5666 5664 5663 5662 5661 5660 5660 5661 5661 5662 5663 5663 5664 5667 5673
5740 5739 5738 5735 5733 5731 5728 5724 5720 5717 5714 5711 5709 5705 5702 5698 5695 5692 5689 5686 5684 5682 5680 5677 5675 5673 5671 5668 5666 5664 5663 5662 5661 5661 5661 5661 5661 5662 5663 5664 5664 5664 5667
5740 5739 5738 5735 5733 5731 5728 5725 5721 5717 5714 5712 5709 5705 5702 5699 5696 5693 5691 5687 5685 5683 5681 5678 5675 5673 5671 5668 5666 5664 5662 5661 5661 5660 5661 5661 5661 5662 5663 5664 5665 5664 5663
5739 5738 5737 5735 5733 5732 5729 5725 5722 5718 5716 5712 5709 5706 5702 5700 5697 5694 5691 5688 5686 5684 5681 5678 5676 5673 5671 5668 5666 5664 5662 5661 5660 5660 5660 5660 5660 5661 5662 5663 5664 5665 5665
5738 5738 5737 5736 5733 5730 5727 5723 5720 5717 5714 5712 5709 5706 5703 5700 5697 5694 5691 5688 5686 5684 5681 5678 5676 5673 5671 5668 5666 5664 5663 5661 5660 5660 5660 5660 5660 5660 5661 5662 5663 5664 5665
5738 5737 5736 5733 5730 5728 5726 5723 5720 5717 5715 5712 5709 5706 5703 5700 5696 5694 5691 5689 5686 5684 5681 5679 5676 5674 5671 5669 5666 5664 5663 5661 5660 5660 5660 5660 5660 5660 5660 5661 5662 5663 5664
5735 5734 5732 5731 5729 5727 5725 5723 5720 5718 5715 5712 5708 5705 5702 5699 5696 5694 5692 5689 5686 5684 5681 5678 5676 5673 5671 5669 5666 5664 5663 5662 5660 5660 5659 5660 5659 5659 5659 5660 5660 5661 5663
5731 5730 5729 5728 5727 5726 5725 5722 5720 5717 5714 5710 5707 5704 5702 5699 5697 5694 5691 5689 5686 5683 5681 5678 5676 5674 5672 5669 5667 5665 5663 5662 5661 5660 5659 5659 5659 5659 5659 5659 5659 5660 5660
5728 5728 5726 5725 5724 5723 5722 5721 5719 5716 5713 5709 5706 5704 5702 5700 5696 5693 5691 5688 5685 5683 5681 5678 5676 5674 5672 5670 5668 5665 5663 5661 5660 5659 5659 5659 5659 5659 5659 5659 5658 5658 5657
5724 5725 5725 5724 5723 5722 5721 5719 5717 5715 5712 5708 5706 5704 5701 5698 5695 5693 5690 5687 5685 5682 5680 5677 5675 5673 5673 5672 5670 5667 5663 5661 5659 5658 5658 5658 5658 5659 5659 5659 5659 5658 5656
5720 5721 5721 5722 5722 5722 5721 5718 5717 5713 5710 5707 5705 5703 5700 5697 5694 5692 5689 5686 5683 5681 5678 5676 5674 5673 5672 5672 5670 5668 5663 5661 5658 5657 5656 5656 5657 5656 5656 5656 5657 5656 5657
5716 5717 5718 5719 5720 5720 5719 5717 5714 5710 5707 5705 5703 5701 5698 5695 5693 5690 5687 5685 5682 5679 5677 5675 5673 5672 5671 5671 5669 5667 5663 5660 5657 5656 5654 5653 5653 5654 5653 5653 5652 5652 5652
5712 5713 5714 5715 5716 5715 5715 5713 5710 5707 5704 5702 5701 5699 5697 5693 5690 5688 5686 5684 5681 5678 5676 5674 5672 5670 5670 5670 5668 5665 5661 5658 5656 5654 5653 5652 5652 5653 5652 5650 5648 5648 5648
5707 5708 5709 5710 5709 5709 5709 5707 5704 5702 5700 5700 5700 5698 5695 5692 5689 5687 5685 5682 5680 5677 5675 5672 5671 5669 5668 5668 5666 5664 5659 5656 5654 5652 5651 5651 5651 5650 5649 5647 5645 5644 5644
5701 5702 5702 5702 5702 5702 5702 5700 5698 5698 5700 5698 5696 5694 5692 5690 5688 5685 5682 5680 5677 5674 5671 5670 5668 5667 5666 5665 5664 5662 5657 5654 5652 5650 5648 5648 5649 5648 5647 5645 5643 5643 5642
5692 5693 5693 5693 5694 5694 5693 5692 5692 5694 5693 5692 5690 5689 5687 5686 5685 5681 5678 5675 5672 5669 5667 5665 5664 5663 5662 5662 5661 5660 5657 5654 5650 5648 5646 5645 5645 5645 5643 5641 5640 5640 5638
5681 5682 5682 5683 5684 5684 5684 5684 5686 5686 5685 5684 5683 5682 5681 5679 5678 5675 5672 5669 5667 5665 5663 5661 5660 5659 5658 5657 5657 5656 5654 5651 5648 5645 5644 5642 5641 5640 5638 5637 5636 5634 5632
5669 5670 5671 5672 5673 5674 5674 5675 5677 5677 5676 5674 5674 5673 5672 5671 5670 5668 5667 5665 5662 5660 5659 5657 5656 5655 5653 5652 5651 5650 5648 5646 5643 5640 5639 5637 5635 5633 5631 5630 5628 5627 5626
5656 5657 5657 5659 5661 5663 5663 5665 5665 5665 5665 5665 5665 5664 5663 5661 5660 5660 5659 5659 5659 5658 5657 5655 5654 5651 5650 5651 5650 5647 5644 5641 5639 5634 5631 5628 5626 5624 5622 5621 5620 5619 5617
5643 5644 5645 5646 5648 5650 5651 5653 5654 5654 5653 5653 5653 5653 5652 5651 5650 5649 5648 5650 5651 5652 5652 5652 5650 5649 5650 5648 5646 5643 5641 5638 5634 5629 5625 5622 5620 5619 5617 5615 5612 5611 5610